Simultaneous Nadir Overpasses (SNOs) Predictions

Prediction of SNOs between GOES-14 and NOAA-20 Satellite Orbit:

Table of predicted SNOs for the next 14.0 days since TLE Epoch: 2/13/2025
Index Date Time (GOES-14) GOES-14 Lat,Lon NOAA-20 Lat,Lon Distance(km) Time Diff (sec)
1 02/14/2025 08:22:41 0.41,-107.76 -0.16,-105.17 294.70 80
2 02/15/2025 20:47:16 -0.43,-107.70 -1.03,-110.47 314.41 80
3 02/16/2025 20:25:51 -0.42,-107.69 -0.05,-105.93 200.59 80
4 02/18/2025 08:50:18 0.44,-107.70 1.24,-111.19 398.46 80
5 02/19/2025 08:28:53 0.43,-107.69 0.19,-106.67 116.46 80
6 02/20/2025 20:53:28 -0.45,-107.63 -1.44,-111.95 493.12 80
7 02/21/2025 20:32:03 -0.45,-107.61 -0.39,-107.43 21.67 80
8 02/24/2025 08:37:45 0.46,-107.60 0.57,-108.16 63.38 80
9 02/25/2025 08:16:20 0.46,-107.58 -0.42,-103.62 451.30 80
10 02/26/2025 20:40:55 -0.47,-107.52 -0.75,-108.92 158.70 80
